Regional Weather Roundup
Issued by NWS Little Rock, AR

Home | Current Version | Previous Version | Graphics & Text | Print | Product List | Glossary On
Versions: 1 2 3 4 5 6 7 8 9 10 11 12 13 14 15 16 17 18 19 20 21 22 23 24 25 26 27 28 29 30 31 32 33 34 35 36 37 38 39 40 41 42 43 44 45 46 47 48 49 50
000
ASUS44 KLZK 250405
RWRLZK

WEATHER ROUNDUP FOR ARKANSAS
NATIONAL WEATHER SERVICE LITTLE ROCK AR
1100 PM CDT SUN MAY 24 2015

NOTE: "FAIR" INDICATES FEW OR NO CLOUDS BELOW 12,000 FEET WITH NO
SIGNIFICANT WEATHER AND/OR OBSTRUCTIONS TO VISIBILITY.

ARZ001-003-010-029-250500-
NORTHWEST ARKANSAS

CITY           SKY/WX    TMP DP  RH WIND       PRES   REMARKS
FAYETTEVILLE   MOCLDY    61  60  97 S8        29.92R
FORT SMITH     FOG       62  60  93 E3        29.93R VSB 1
HARRISON       PTCLDY    63  62  97 S5        29.93R
BENTONVILLE    MOCLDY    63  59  88 SW8       29.93R
ROGERS         MOCLDY    62  61  96 SW9       29.93R
SILOAM SPGS    CLOUDY    63  55  77 SW9       29.94R
HIGHFILL       CLOUDY    63  63 100 SW9       29.92R
$$

ARZ004-005-016-250500-
NORTH CENTRAL ARKANSAS

CITY           SKY/WX    TMP DP  RH WIND       PRES   REMARKS
BATESVILLE     CLOUDY    70  66  88 SE6       29.96R
FLIPPIN        CLOUDY    70  64  83 SW3       29.91R
MTN HOME       CLOUDY    68  66  93 S5        29.92R
$$

ARZ040-041-250500-
WEST CENTRAL ARKANSAS

CITY           SKY/WX    TMP DP  RH WIND       PRES   REMARKS
MENA           CLOUDY    70  68  94 CALM      29.96R
MOUNT IDA      CLOUDY    72  67  84 VRB3      29.94R
$$

ARZ009-017-025-026-028-250500-
NORTHEAST ARKANSAS

CITY           SKY/WX    TMP DP  RH WIND       PRES   REMARKS
CORNING          N/A     70  68  94 S16G22    29.96S
JONESBORO      CLOUDY    68  67  96 S12       29.97S
NEWPORT        LGT RAIN  71  69  93 S13       29.98R
WALNUT RIDGE   CLOUDY    70  66  88 S16       29.95S
BLYTHEVILLE    LGT RAIN  71  32  23 S14       30.01
$$

ARZ022-023-033-042-044-250500-
CENTRAL ARKANSAS

CITY           SKY/WX    TMP DP  RH WIND       PRES   REMARKS
LITTLE ROCK    RAIN      72  68  88 SW13      29.98R FOG
N LITTLE ROCK  CLOUDY    71  70  98 S12G22    29.98R
JACKSONVILLE   LGT RAIN  71  70  95 S10G17    29.97R
SEARCY         CLOUDY    70  69  97 CALM      29.98R
HOT SPRINGS    CLOUDY    71  68  90 SE8       29.96S
RUSSELLVILLE   CLOUDY    70  68  93 CALM      29.94R
CLINTON        LGT RAIN  68  68 100 CALM      29.97R
$$

ARZ036-250500-
EAST ARKANSAS

CITY           SKY/WX    TMP DP  RH WIND       PRES   REMARKS
WEST MEMPHIS   CLOUDY    69  68  96 SE15      29.99F
$$

ARZ050-053-066-070-073-250500-
SOUTHWEST ARKANSAS

CITY           SKY/WX    TMP DP  RH WIND       PRES   REMARKS
ARKADELPHIA    MOCLDY    71  71 100 S5        29.98R
CAMDEN         CLOUDY    70  68  94 NE6       29.98R
TEXARKANA      CLOUDY    71  68  90 S7        29.95R
EL DORADO      CLOUDY    70  68  93 SE8       30.00R
DE QUEEN       MOCLDY    72  69  90 CALM      29.92R
$$

ARZ056-057-069-250500-
SOUTHEAST ARKANSAS

CITY           SKY/WX    TMP DP  RH WIND       PRES   REMARKS
PINE BLUFF     CLOUDY    72  70  93 S9        29.99R
STUTTGART      CLOUDY    72  66  83 MISG      29.98R
MONTICELLO     CLOUDY    72  71  97 S6        30.00R

$$





USA.gov is the U.S. government's official web portal to all federal, state and local government web resources and services.